| time (UTC) | temp F | wind direction | speed MPH | gust MPH | rain 1hr in | rain 24hr in | rain mn in | humidity % | barometer mb |
| 20260902230904 | 99 | 213 | 0.0 | 2.0 | 0.00 | 0.00 | 0.00 | 32 | 1008.0 |
| 20260902230404 | 99 | 241 | 0.0 | 3.0 | 0.00 | 0.00 | 0.00 | 31 | 1008.0 |
| 20260902225904 | 99 | 227 | 0.0 | 3.0 | 0.00 | 0.00 | 0.00 | 31 | 1008.0 |
| 20260902225404 | 99 | 254 | 0.0 | 0.0 | 0.00 | 0.00 | 0.00 | 32 | 1008.1 |
| 20260902224904 | 99 | 254 | 0.0 | 0.0 | 0.00 | 0.00 | 0.00 | 31 | 1008.2 |
| 20260902223904 | 98 | 225 | 0.0 | 0.0 | 0.00 | 0.00 | 0.00 | 32 | 1008.4 |
| 20260902223404 | 99 | 226 | 0.0 | 3.0 | 0.00 | 0.00 | 0.00 | 32 | 1008.4 |
| 20260902222904 | 99 | 210 | 0.0 | 1.0 | 0.00 | 0.00 | 0.00 | 31 | 1008.4 |
| 20260902221903 | 99 | 225 | 0.0 | 2.0 | 0.00 | 0.00 | 0.00 | 32 | 1008.6 |
| 20260902221404 | 99 | 221 | 0.0 | 0.0 | 0.00 | 0.00 | 0.00 | 31 | 1008.6 |
| 20260902220904 | 99 | 194 | 0.0 | 3.0 | 0.00 | 0.00 | 0.00 | 31 | 1008.6 |
| 20260902220405 | 99 | 215 | 0.0 | 3.0 | 0.00 | 0.00 | 0.00 | 31 | 1008.7 |
| 20260902215904 | 99 | 207 | 0.0 | 0.0 | 0.00 | 0.00 | 0.00 | 31 | 1008.7 |
| 20260902215404 | 99 | 231 | 0.0 | 0.0 | 0.00 | 0.00 | 0.00 | 31 | 1008.8 |
| 20260902214905 | 99 | 232 | 0.0 | 3.0 | 0.00 | 0.00 | 0.00 | 31 | 1008.9 |
| 20260902214404 | 99 | 221 | 0.0 | 1.0 | 0.00 | 0.00 | 0.00 | 31 | 1008.8 |
| 20260902213904 | 99 | 225 | 0.0 | 3.0 | 0.00 | 0.00 | 0.00 | 30 | 1008.9 |
| 20260902212404 | 99 | 261 | 0.0 | 0.0 | 0.00 | 0.00 | 0.00 | 32 | 1009.0 |
| 20260902211904 | 99 | 261 | 0.0 | 1.0 | 0.00 | 0.00 | 0.00 | 32 | 1009.0 |
| 20260902211404 | 98 | 261 | 0.0 | 0.0 | 0.00 | 0.00 | 0.00 | 33 | 1009.1 |
| 20260902210904 | 98 | 261 | 0.0 | 1.0 | 0.00 | 0.00 | 0.00 | 33 | 1009.3 |
| 20260902210404 | 98 | 283 | 0.0 | 3.0 | 0.00 | 0.00 | 0.00 | 32 | 1009.4 |
| 20260902205904 | 98 | 211 | 0.0 | 1.0 | 0.00 | 0.00 | 0.00 | 33 | 1009.3 |
| 20260902204904 | 97 | 216 | 0.0 | 3.0 | 0.00 | 0.00 | 0.00 | 33 | 1009.6 |
| 20260902203404 | 97 | 219 | 0.0 | 3.0 | 0.00 | 0.00 | 0.00 | 33 | 1009.7 |
| 20260902202904 | 98 | 214 | 0.0 | 1.0 | 0.00 | 0.00 | 0.00 | 33 | 1009.7 |
| 20260902202403 | 97 | 211 | 1.0 | 3.0 | 0.00 | 0.00 | 0.00 | 33 | 1009.9 |
| 20260902201904 | 97 | 244 | 0.0 | 0.0 | 0.00 | 0.00 | 0.00 | 33 | 1010.0 |
| 20260902200904 | 97 | 242 | 0.0 | 0.0 | 0.00 | 0.00 | 0.00 | 34 | 1010.1 |
| 20260902200404 | 97 | 250 | 0.0 | 0.0 | 0.00 | 0.00 | 0.00 | 34 | 1010.2 |
| 20260902195904 | 97 | 257 | 0.0 | 2.0 | 0.00 | 0.00 | 0.00 | 35 | 1010.1 |
| 20260902194904 | 96 | 261 | 0.0 | 0.0 | 0.00 | 0.00 | 0.00 | 36 | 1010.4 |
| 20260902194404 | 96 | 195 | 0.0 | 0.0 | 0.00 | 0.00 | 0.00 | 36 | 1010.5 |
| 20260902193904 | 96 | 194 | 0.0 | 3.0 | 0.00 | 0.00 | 0.00 | 36 | 1010.6 |
| 20260902192904 | 96 | 199 | 0.0 | 0.0 | 0.00 | 0.00 | 0.00 | 37 | 1010.7 |
| 20260902192404 | 96 | 199 | 0.0 | 0.0 | 0.00 | 0.00 | 0.00 | 37 | 1010.8 |
| 20260902191904 | 96 | 199 | 0.0 | 0.0 | 0.00 | 0.00 | 0.00 | 37 | 1010.9 |
| 20260902191404 | 96 | 199 | 0.0 | 0.0 | 0.00 | 0.00 | 0.00 | 37 | 1011.0 |
| 20260902190903 | 96 | 187 | 0.0 | 0.0 | 0.00 | 0.00 | 0.00 | 37 | 1011.1 |
| 20260902190404 | 96 | 169 | 0.0 | 12.0 | 0.00 | 0.00 | 0.00 | 37 | 1011.2 |
| 20260902185904 | 96 | 219 | 0.0 | 0.0 | 0.00 | 0.00 | 0.00 | 37 | 1011.2 |
| 20260902185404 | 96 | 199 | 0.0 | 0.0 | 0.00 | 0.00 | 0.00 | 38 | 1011.3 |
| 20260902184904 | 96 | 200 | 0.0 | 0.0 | 0.00 | 0.00 | 0.00 | 38 | 1011.2 |
| 20260902184404 | 96 | 181 | 0.0 | 0.0 | 0.00 | 0.00 | 0.00 | 40 | 1011.4 |
| 20260902183904 | 95 | 181 | 0.0 | 0.0 | 0.00 | 0.00 | 0.00 | 41 | 1011.5 |
| 20260902183404 | 95 | 180 | 1.0 | 5.0 | 0.00 | 0.00 | 0.00 | 41 | 1011.5 |
| 20260902182904 | 95 | 180 | 0.0 | 8.0 | 0.00 | 0.00 | 0.00 | 40 | 1011.6 |
| 20260902182403 | 96 | 204 | 0.0 | 0.0 | 0.00 | 0.00 | 0.00 | 41 | 1011.6 |
| 20260902181904 | 95 | 204 | 0.0 | 0.0 | 0.00 | 0.00 | 0.00 | 41 | 1011.7 |
| 20260902181404 | 95 | 204 | 0.0 | 0.0 | 0.00 | 0.00 | 0.00 | 40 | 1011.8 |
| 20260902180904 | 95 | 204 | 0.0 | 0.0 | 0.00 | 0.00 | 0.00 | 40 | 1011.8 |
| 20260902180404 | 94 | 205 | 0.0 | 3.0 | 0.00 | 0.00 | 0.00 | 41 | 1011.8 |
| 20260902175404 | 94 | 205 | 1.0 | 6.0 | 0.00 | 0.00 | 0.00 | 42 | 1012.0 |
| 20260902174904 | 94 | 221 | 0.0 | 0.0 | 0.00 | 0.00 | 0.00 | 41 | 1012.0 |
| 20260902173904 | 94 | 222 | 0.0 | 1.0 | 0.00 | 0.00 | 0.00 | 43 | 1012.0 |
| 20260902173404 | 94 | 221 | 0.0 | 0.0 | 0.00 | 0.00 | 0.00 | 42 | 1012.0 |
| 20260902172904 | 94 | 221 | 1.0 | 5.0 | 0.00 | 0.00 | 0.00 | 42 | 1012.0 |
| 20260902172404 | 94 | 222 | 1.0 | 3.0 | 0.00 | 0.00 | 0.00 | 41 | 1012.0 |
| 20260902171904 | 93 | 223 | 0.0 | 0.0 | 0.00 | 0.00 | 0.00 | 43 | 1012.1 |
| 20260902171403 | 93 | 223 | 0.0 | 0.0 | 0.00 | 0.00 | 0.00 | 43 | 1012.2 |
| 20260902170904 | 93 | 223 | 0.0 | 0.0 | 0.00 | 0.00 | 0.00 | 43 | 1012.2 |
| 20260902170403 | 93 | 223 | 0.0 | 0.0 | 0.00 | 0.00 | 0.00 | 43 | 1012.2 |
| 20260902165904 | 92 | 223 | 0.0 | 0.0 | 0.00 | 0.00 | 0.00 | 43 | 1012.1 |
| 20260902165404 | 92 | 223 | 0.0 | 0.0 | 0.00 | 0.00 | 0.00 | 44 | 1012.0 |
| 20260902164904 | 92 | 223 | 0.0 | 0.0 | 0.00 | 0.00 | 0.00 | 43 | 1012.0 |
| 20260902164404 | 92 | 223 | 0.0 | 0.0 | 0.00 | 0.00 | 0.00 | 44 | 1012.1 |
| 20260902163904 | 92 | 223 | 0.0 | 0.0 | 0.00 | 0.00 | 0.00 | 44 | 1012.1 |
| 20260902162904 | 92 | 223 | 0.0 | 0.0 | 0.00 | 0.00 | 0.00 | 45 | 1012.1 |
| 20260902162403 | 92 | 223 | 0.0 | 0.0 | 0.00 | 0.00 | 0.00 | 46 | 1012.1 |
| 20260902161904 | 91 | 223 | 0.0 | 0.0 | 0.00 | 0.00 | 0.00 | 47 | 1012.2 |
| 20260902161403 | 91 | 223 | 0.0 | 0.0 | 0.00 | 0.00 | 0.00 | 47 | 1012.2 |
| 20260902160904 | 91 | 223 | 0.0 | 0.0 | 0.00 | 0.00 | 0.00 | 47 | 1012.2 |
| 20260902160404 | 91 | 223 | 0.0 | 0.0 | 0.00 | 0.00 | 0.00 | 47 | 1012.2 |
| 20260902155903 | 91 | 223 | 0.0 | 0.0 | 0.00 | 0.00 | 0.00 | 46 | 1012.2 |
| 20260902154904 | 90 | 223 | 0.0 | 0.0 | 0.00 | 0.00 | 0.00 | 47 | 1012.1 |
| 20260902154403 | 90 | 223 | 0.0 | 0.0 | 0.00 | 0.00 | 0.00 | 48 | 1012.1 |
| 20260902153903 | 90 | 223 | 0.0 | 0.0 | 0.00 | 0.00 | 0.00 | 48 | 1012.2 |
| 20260902153404 | 89 | 223 | 0.0 | 0.0 | 0.00 | 0.00 | 0.00 | 50 | 1012.2 |
| 20260902152904 | 89 | 223 | 0.0 | 0.0 | 0.00 | 0.00 | 0.00 | 50 | 1012.3 |
| 20260902150903 | 87 | 223 | 0.0 | 3.0 | 0.00 | 0.00 | 0.00 | 53 | 1012.2 |
| 20260902145404 | 87 | 223 | 0.0 | 2.0 | 0.00 | 0.00 | 0.00 | 53 | 1012.0 |
| 20260902144404 | 87 | 242 | 0.0 | 0.0 | 0.00 | 0.00 | 0.00 | 54 | 1011.9 |
| 20260902143904 | 87 | 242 | 0.0 | 0.0 | 0.00 | 0.00 | 0.00 | 54 | 1011.8 |
| 20260902143404 | 87 | 242 | 0.0 | 0.0 | 0.00 | 0.00 | 0.00 | 55 | 1011.7 |
| 20260902142903 | 86 | 242 | 0.0 | 0.0 | 0.00 | 0.00 | 0.00 | 55 | 1011.8 |
| 20260902142404 | 86 | 241 | 0.0 | 2.0 | 0.00 | 0.00 | 0.00 | 55 | 1011.8 |
| 20260902140904 | 85 | 245 | 0.0 | 0.0 | 0.00 | 0.00 | 0.00 | 57 | 1011.6 |
| 20260902140404 | 85 | 245 | 0.0 | 0.0 | 0.00 | 0.00 | 0.00 | 58 | 1011.6 |
| 20260902135903 | 84 | 245 | 0.0 | 0.0 | 0.00 | 0.00 | 0.00 | 59 | 1011.5 |
| 20260902135404 | 83 | 245 | 0.0 | 0.0 | 0.00 | 0.00 | 0.00 | 60 | 1011.5 |
| 20260902134904 | 83 | 245 | 0.0 | 0.0 | 0.00 | 0.00 | 0.00 | 61 | 1011.5 |
| 20260902134404 | 82 | 245 | 0.0 | 0.0 | 0.00 | 0.00 | 0.00 | 62 | 1011.4 |
| 20260902133904 | 82 | 245 | 0.0 | 0.0 | 0.00 | 0.00 | 0.00 | 63 | 1011.4 |
| 20260902133404 | 81 | 245 | 0.0 | 0.0 | 0.00 | 0.00 | 0.00 | 64 | 1011.4 |
| 20260902132904 | 81 | 245 | 0.0 | 0.0 | 0.00 | 0.00 | 0.00 | 64 | 1011.4 |
| 20260902132404 | 80 | 245 | 0.0 | 0.0 | 0.00 | 0.00 | 0.00 | 65 | 1011.4 |
| 20260902131904 | 80 | 245 | 0.0 | 0.0 | 0.00 | 0.00 | 0.00 | 65 | 1011.4 |
| 20260902131403 | 80 | 245 | 0.0 | 0.0 | 0.00 | 0.00 | 0.00 | 65 | 1011.3 |
| 20260902130404 | 80 | 245 | 0.0 | 0.0 | 0.00 | 0.00 | 0.00 | 65 | 1011.3 |
| 20260902125904 | 80 | 245 | 0.0 | 0.0 | 0.00 | 0.00 | 0.00 | 64 | 1011.0 |
| 20260902125404 | 80 | 245 | 0.0 | 0.0 | 0.00 | 0.00 | 0.00 | 64 | 1010.9 |
| 20260902124904 | 80 | 245 | 0.0 | 0.0 | 0.00 | 0.00 | 0.00 | 64 | 1010.8 |
| 20260902124404 | 80 | 245 | 0.0 | 0.0 | 0.00 | 0.00 | 0.00 | 64 | 1010.8 |
| 20260902123903 | 80 | 245 | 0.0 | 0.0 | 0.00 | 0.00 | 0.00 | 63 | 1010.8 |
| 20260902123404 | 80 | 245 | 0.0 | 0.0 | 0.00 | 0.00 | 0.00 | 63 | 1010.8 |
| 20260902122903 | 80 | 245 | 0.0 | 0.0 | 0.00 | 0.00 | 0.00 | 63 | 1010.7 |
| 20260902122403 | 81 | 245 | 0.0 | 0.0 | 0.00 | 0.00 | 0.00 | 62 | 1010.7 |
| 20260902121904 | 81 | 245 | 0.0 | 0.0 | 0.00 | 0.00 | 0.00 | 62 | 1010.7 |
| 20260902121403 | 81 | 245 | 0.0 | 0.0 | 0.00 | 0.00 | 0.00 | 62 | 1010.7 |
| 20260902120903 | 81 | 245 | 0.0 | 0.0 | 0.00 | 0.00 | 0.00 | 61 | 1010.6 |
| 20260902120403 | 81 | 245 | 0.0 | 0.0 | 0.00 | 0.00 | 0.00 | 61 | 1010.5 |
| 20260902115904 | 81 | 245 | 0.0 | 0.0 | 0.00 | 0.00 | 0.00 | 61 | 1010.4 |
| 20260902115404 | 81 | 245 | 0.0 | 0.0 | 0.00 | 0.00 | 0.00 | 61 | 1010.4 |
| 20260902114904 | 81 | 245 | 0.0 | 0.0 | 0.00 | 0.00 | 0.00 | 61 | 1010.3 |
| 20260902114403 | 81 | 245 | 0.0 | 0.0 | 0.00 | 0.00 | 0.00 | 61 | 1010.3 |
| 20260902113903 | 82 | 245 | 0.0 | 0.0 | 0.00 | 0.00 | 0.00 | 61 | 1010.3 |
| 20260902113404 | 82 | 245 | 0.0 | 0.0 | 0.00 | 0.00 | 0.00 | 61 | 1010.3 |
| 20260902112904 | 82 | 245 | 0.0 | 0.0 | 0.00 | 0.00 | 0.00 | 60 | 1010.3 |
| 20260902111904 | 82 | 245 | 0.0 | 0.0 | 0.00 | 0.00 | 0.00 | 60 | 1010.2 |
| 20260902111404 | 82 | 245 | 0.0 | 0.0 | 0.00 | 0.00 | 0.00 | 59 | 1010.1 |
| 20260902104404 | 83 | 245 | 0.0 | 0.0 | 0.00 | 0.00 | 0.00 | 57 | 1010.2 |
| 20260902103404 | 84 | 245 | 0.0 | 0.0 | 0.00 | 0.00 | 0.00 | 56 | 1010.2 |
| 20260902102903 | 84 | 245 | 0.0 | 0.0 | 0.00 | 0.00 | 0.00 | 56 | 1010.2 |
| 20260902102404 | 84 | 245 | 0.0 | 0.0 | 0.00 | 0.00 | 0.00 | 56 | 1010.2 |
| 20260902101904 | 84 | 245 | 0.0 | 0.0 | 0.00 | 0.00 | 0.00 | 55 | 1010.3 |
| 20260902101404 | 84 | 245 | 0.0 | 0.0 | 0.00 | 0.00 | 0.00 | 55 | 1010.3 |
| 20260902100903 | 85 | 245 | 0.0 | 0.0 | 0.00 | 0.00 | 0.00 | 54 | 1010.2 |
| 20260902100404 | 85 | 245 | 0.0 | 0.0 | 0.00 | 0.00 | 0.00 | 54 | 1010.2 |
| 20260902095904 | 85 | 245 | 0.0 | 0.0 | 0.00 | 0.00 | 0.00 | 53 | 1010.3 |
| 20260902095404 | 85 | 245 | 0.0 | 0.0 | 0.00 | 0.00 | 0.00 | 51 | 1010.3 |
| 20260902094904 | 85 | 245 | 0.0 | 0.0 | 0.00 | 0.00 | 0.00 | 51 | 1010.2 |
| 20260902094404 | 85 | 245 | 0.0 | 0.0 | 0.00 | 0.00 | 0.00 | 50 | 1010.2 |
| 20260902093903 | 86 | 246 | 0.0 | 0.0 | 0.00 | 0.00 | 0.00 | 50 | 1010.1 |
| 20260902093404 | 86 | 245 | 0.0 | 0.0 | 0.00 | 0.00 | 0.00 | 49 | 1010.1 |
| 20260902092904 | 86 | 245 | 0.0 | 0.0 | 0.00 | 0.00 | 0.00 | 49 | 1010.0 |
| 20260902092404 | 86 | 245 | 0.0 | 0.0 | 0.00 | 0.00 | 0.00 | 48 | 1010.0 |
| 20260902091904 | 87 | 245 | 0.0 | 0.0 | 0.00 | 0.00 | 0.00 | 48 | 1010.0 |
| 20260902091404 | 87 | 245 | 0.0 | 0.0 | 0.00 | 0.00 | 0.00 | 48 | 1010.1 |
| 20260902090904 | 87 | 245 | 0.0 | 0.0 | 0.00 | 0.00 | 0.00 | 47 | 1010.0 |
| 20260902090404 | 88 | 245 | 0.0 | 0.0 | 0.00 | 0.00 | 0.00 | 47 | 1009.9 |
| 20260902085904 | 88 | 245 | 0.0 | 0.0 | 0.00 | 0.00 | 0.00 | 47 | 1009.9 |
| 20260902085404 | 88 | 245 | 0.0 | 0.0 | 0.00 | 0.00 | 0.00 | 46 | 1009.9 |
| 20260902084904 | 88 | 245 | 0.0 | 0.0 | 0.00 | 0.00 | 0.00 | 46 | 1009.9 |
| 20260902084404 | 89 | 245 | 0.0 | 0.0 | 0.00 | 0.00 | 0.00 | 46 | 1010.0 |
| 20260902083404 | 89 | 245 | 0.0 | 0.0 | 0.00 | 0.00 | 0.00 | 46 | 1010.0 |
| 20260902082404 | 89 | 245 | 0.0 | 0.0 | 0.00 | 0.00 | 0.00 | 46 | 1010.0 |
| 20260902081904 | 89 | 245 | 0.0 | 0.0 | 0.00 | 0.00 | 0.00 | 46 | 1010.0 |
| 20260902080404 | 89 | 245 | 0.0 | 0.0 | 0.00 | 0.00 | 0.00 | 46 | 1010.0 |
| 20260902075904 | 89 | 245 | 0.0 | 0.0 | 0.00 | 0.00 | 0.00 | 46 | 1010.1 |
| 20260902075404 | 89 | 245 | 0.0 | 0.0 | 0.00 | 0.00 | 0.00 | 45 | 1010.1 |
| 20260902074904 | 89 | 245 | 0.0 | 0.0 | 0.00 | 0.00 | 0.00 | 45 | 1010.0 |
| 20260902074403 | 90 | 245 | 0.0 | 0.0 | 0.00 | 0.00 | 0.00 | 45 | 1010.0 |
| 20260902073904 | 90 | 245 | 0.0 | 0.0 | 0.00 | 0.00 | 0.00 | 45 | 1009.9 |
| 20260902073404 | 89 | 245 | 0.0 | 0.0 | 0.00 | 0.00 | 0.00 | 45 | 1009.8 |
| 20260902072904 | 89 | 245 | 0.0 | 0.0 | 0.00 | 0.00 | 0.00 | 44 | 1010.0 |
| 20260902072405 | 89 | 245 | 0.0 | 0.0 | 0.00 | 0.00 | 0.00 | 42 | 1010.0 |
| 20260902071903 | 89 | 245 | 0.0 | 0.0 | 0.00 | 0.00 | 0.00 | 41 | 1009.9 |
| 20260902071404 | 88 | 249 | 0.0 | 0.0 | 0.00 | 0.00 | 0.00 | 42 | 1009.9 |
| 20260902070904 | 88 | 249 | 0.0 | 0.0 | 0.00 | 0.00 | 0.00 | 46 | 1009.8 |
| 20260902070404 | 88 | 250 | 0.0 | 0.0 | 0.00 | 0.00 | 0.00 | 48 | 1009.7 |
| 20260902065904 | 87 | 250 | 0.0 | 1.0 | 0.00 | 0.00 | 0.00 | 50 | 1009.9 |
| 20260902064904 | 87 | 250 | 0.0 | 0.0 | 0.00 | 0.00 | 0.00 | 49 | 1009.9 |
| 20260902064403 | 87 | 250 | 0.0 | 0.0 | 0.00 | 0.00 | 0.00 | 48 | 1009.7 |
| 20260902063904 | 87 | 250 | 0.0 | 0.0 | 0.00 | 0.00 | 0.00 | 48 | 1009.7 |
| 20260902063404 | 88 | 250 | 0.0 | 0.0 | 0.00 | 0.00 | 0.00 | 48 | 1009.6 |
| 20260902062904 | 88 | 250 | 0.0 | 0.0 | 0.00 | 0.00 | 0.00 | 48 | 1009.7 |
| 20260902062404 | 88 | 250 | 0.0 | 0.0 | 0.00 | 0.00 | 0.00 | 48 | 1009.6 |
| 20260902061904 | 88 | 250 | 0.0 | 0.0 | 0.00 | 0.00 | 0.00 | 48 | 1009.6 |
| 20260902060904 | 88 | 250 | 0.0 | 0.0 | 0.00 | 0.00 | 0.00 | 47 | 1009.7 |
| 20260902060404 | 88 | 250 | 0.0 | 0.0 | 0.00 | 0.00 | 0.00 | 47 | 1009.8 |
| 20260902055904 | 88 | 250 | 0.0 | 0.0 | 0.00 | 0.00 | 0.00 | 47 | 1009.9 |
| 20260902055404 | 88 | 250 | 0.0 | 0.0 | 0.00 | 0.00 | 0.00 | 46 | 1009.9 |
| 20260902054903 | 89 | 250 | 0.0 | 0.0 | 0.00 | 0.00 | 0.00 | 46 | 1009.8 |
| 20260902054404 | 89 | 250 | 0.0 | 0.0 | 0.00 | 0.00 | 0.00 | 46 | 1009.8 |
| 20260902053904 | 89 | 250 | 0.0 | 0.0 | 0.00 | 0.00 | 0.00 | 45 | 1009.7 |
| 20260902053403 | 89 | 250 | 0.0 | 0.0 | 0.00 | 0.00 | 0.00 | 45 | 1009.7 |
| 20260902052904 | 89 | 250 | 0.0 | 0.0 | 0.00 | 0.00 | 0.00 | 45 | 1009.8 |
| 20260902052404 | 89 | 250 | 0.0 | 0.0 | 0.00 | 0.00 | 0.00 | 45 | 1009.8 |
| 20260902051904 | 89 | 250 | 0.0 | 0.0 | 0.00 | 0.00 | 0.00 | 45 | 1009.8 |
| 20260902050903 | 89 | 250 | 0.0 | 0.0 | 0.00 | 0.00 | 0.00 | 44 | 1009.8 |
| 20260902050404 | 89 | 250 | 0.0 | 0.0 | 0.00 | 0.00 | 0.00 | 44 | 1009.7 |
| 20260902045904 | 90 | 250 | 0.0 | 0.0 | 0.00 | 0.00 | 0.00 | 44 | 1009.8 |
| 20260902045404 | 90 | 250 | 0.0 | 0.0 | 0.00 | 0.00 | 0.00 | 44 | 1009.8 |
| 20260902044903 | 90 | 250 | 0.0 | 0.0 | 0.00 | 0.00 | 0.00 | 44 | 1009.8 |
| 20260902044404 | 90 | 250 | 0.0 | 0.0 | 0.00 | 0.00 | 0.00 | 44 | 1009.8 |
| 20260902043904 | 90 | 250 | 0.0 | 0.0 | 0.00 | 0.00 | 0.00 | 44 | 1009.7 |
| 20260902043404 | 90 | 250 | 0.0 | 0.0 | 0.00 | 0.00 | 0.00 | 43 | 1009.6 |
| 20260902042903 | 90 | 250 | 0.0 | 0.0 | 0.00 | 0.00 | 0.00 | 43 | 1009.6 |
| 20260902042404 | 90 | 250 | 0.0 | 0.0 | 0.00 | 0.00 | 0.00 | 43 | 1009.5 |
| 20260902041404 | 90 | 250 | 0.0 | 0.0 | 0.00 | 0.00 | 0.00 | 43 | 1009.5 |
| 20260902040904 | 90 | 250 | 0.0 | 0.0 | 0.00 | 0.00 | 0.00 | 43 | 1009.4 |
| 20260902040404 | 90 | 250 | 0.0 | 0.0 | 0.00 | 0.00 | 0.00 | 43 | 1009.3 |
| 20260902035904 | 90 | 250 | 0.0 | 0.0 | 0.00 | 0.00 | 0.00 | 43 | 1009.4 |
| 20260902035403 | 91 | 250 | 0.0 | 0.0 | 0.00 | 0.00 | 0.00 | 42 | 1009.3 |
| 20260902034903 | 91 | 250 | 0.0 | 0.0 | 0.00 | 0.00 | 0.00 | 42 | 1009.2 |
| 20260902034404 | 91 | 250 | 0.0 | 0.0 | 0.00 | 0.00 | 0.00 | 42 | 1009.2 |
| 20260902033904 | 91 | 250 | 0.0 | 0.0 | 0.00 | 0.00 | 0.00 | 41 | 1009.2 |
| 20260902032904 | 91 | 250 | 0.0 | 0.0 | 0.00 | 0.00 | 0.00 | 41 | 1008.9 |
| 20260902032404 | 91 | 250 | 0.0 | 0.0 | 0.00 | 0.00 | 0.00 | 41 | 1008.8 |
| 20260902031904 | 92 | 250 | 0.0 | 0.0 | 0.00 | 0.00 | 0.00 | 41 | 1008.6 |
| 20260902031404 | 91 | 250 | 0.0 | 0.0 | 0.00 | 0.00 | 0.00 | 41 | 1008.6 |
| 20260902030904 | 91 | 250 | 0.0 | 0.0 | 0.00 | 0.00 | 0.00 | 41 | 1008.6 |
| 20260902030404 | 91 | 250 | 0.0 | 0.0 | 0.00 | 0.00 | 0.00 | 40 | 1008.5 |
| 20260902025903 | 91 | 250 | 0.0 | 0.0 | 0.00 | 0.00 | 0.00 | 40 | 1008.5 |
| 20260902025404 | 91 | 251 | 0.0 | 0.0 | 0.00 | 0.00 | 0.00 | 40 | 1008.5 |
| 20260902024904 | 91 | 250 | 0.0 | 0.0 | 0.00 | 0.00 | 0.00 | 40 | 1008.4 |
| 20260902024403 | 92 | 250 | 0.0 | 0.0 | 0.00 | 0.00 | 0.00 | 40 | 1008.3 |
| 20260902023903 | 92 | 250 | 0.0 | 0.0 | 0.00 | 0.00 | 0.00 | 39 | 1008.3 |
| 20260902022904 | 92 | 250 | 0.0 | 0.0 | 0.00 | 0.00 | 0.00 | 39 | 1008.3 |
| 20260902022404 | 92 | 250 | 0.0 | 0.0 | 0.00 | 0.00 | 0.00 | 38 | 1008.2 |
| 20260902021903 | 92 | 250 | 0.0 | 0.0 | 0.00 | 0.00 | 0.00 | 38 | 1008.3 |
| 20260902020903 | 93 | 250 | 0.0 | 0.0 | 0.00 | 0.00 | 0.00 | 38 | 1008.2 |
| 20260902020404 | 93 | 250 | 0.0 | 0.0 | 0.00 | 0.00 | 0.00 | 37 | 1008.2 |
| 20260902015904 | 94 | 250 | 0.0 | 0.0 | 0.00 | 0.00 | 0.00 | 36 | 1008.3 |
| 20260902015404 | 94 | 250 | 0.0 | 0.0 | 0.00 | 0.00 | 0.00 | 37 | 1008.2 |
| 20260902014404 | 94 | 250 | 0.0 | 0.0 | 0.00 | 0.00 | 0.00 | 36 | 1008.2 |
| 20260902013904 | 95 | 250 | 0.0 | 0.0 | 0.00 | 0.00 | 0.00 | 36 | 1008.2 |
| 20260902013403 | 95 | 250 | 0.0 | 0.0 | 0.00 | 0.00 | 0.00 | 35 | 1008.2 |
| 20260902012403 | 96 | 250 | 0.0 | 0.0 | 0.00 | 0.00 | 0.00 | 35 | 1008.0 |
| 20260902011904 | 96 | 251 | 0.0 | 0.0 | 0.00 | 0.00 | 0.00 | 34 | 1008.1 |
| 20260902011404 | 96 | 251 | 0.0 | 0.0 | 0.00 | 0.00 | 0.00 | 34 | 1008.2 |
| 20260902010903 | 96 | 250 | 0.0 | 0.0 | 0.00 | 0.00 | 0.00 | 35 | 1008.2 |
| 20260902010404 | 96 | 251 | 0.0 | 0.0 | 0.00 | 0.00 | 0.00 | 36 | 1008.2 |
| 20260902005904 | 96 | 178 | 0.0 | 0.0 | 0.00 | 0.00 | 0.00 | 36 | 1008.4 |
| 20260902004904 | 96 | 178 | 1.0 | 7.0 | 0.00 | 0.00 | 0.00 | 37 | 1008.4 |
| 20260902004403 | 96 | 218 | 0.0 | 0.0 | 0.00 | 0.00 | 0.00 | 38 | 1008.3 |
| 20260902003903 | 97 | 218 | 0.0 | 0.0 | 0.00 | 0.00 | 0.00 | 38 | 1008.5 |
| 20260902003404 | 97 | 218 | 0.0 | 0.0 | 0.00 | 0.00 | 0.00 | 38 | 1008.5 |
| 20260902002403 | 97 | 218 | 0.0 | 0.0 | 0.00 | 0.00 | 0.00 | 38 | 1008.5 |
| 20260902001403 | 97 | 218 | 0.0 | 0.0 | 0.00 | 0.00 | 0.00 | 38 | 1008.6 |
| 20260902000904 | 97 | 218 | 0.0 | 0.0 | 0.00 | 0.00 | 0.00 | 38 | 1008.7 |
| 20260902000403 | 97 | 218 | 0.0 | 0.0 | 0.00 | 0.00 | 0.00 | 38 | 1008.7 |
| 20260901235903 | 97 | 218 | 0.0 | 0.0 | 0.00 | 0.00 | 0.00 | 37 | 1008.6 |
| 20260901234904 | 96 | 218 | 0.0 | 0.0 | 0.00 | 0.00 | 0.00 | 37 | 1008.7 |
| 20260901234403 | 97 | 218 | 0.0 | 0.0 | 0.00 | 0.00 | 0.00 | 37 | 1008.8 |
| 20260901233903 | 97 | 218 | 0.0 | 0.0 | 0.00 | 0.00 | 0.00 | 37 | 1008.8 |
| 20260901233403 | 97 | 218 | 0.0 | 0.0 | 0.00 | 0.00 | 0.00 | 37 | 1008.9 |
| 20260901232903 | 97 | 218 | 0.0 | 0.0 | 0.00 | 0.00 | 0.00 | 37 | 1008.9 |
| 20260901232404 | 98 | 218 | 0.0 | 0.0 | 0.00 | 0.00 | 0.00 | 37 | 1008.9 |
| 20260901231904 | 98 | 218 | 0.0 | 0.0 | 0.00 | 0.00 | 0.00 | 37 | 1009.1 |
| 20260901231403 | 97 | 218 | 0.0 | 0.0 | 0.00 | 0.00 | 0.00 | 37 | 1009.0 |